• In Denmark
  • List of Countries
  • For 7 days
  • Water Temperature
  • Satellite Maps
  • Weather Map
  • Weather Widgets
  • user-avatar
    Login

    Hourly Weather Mochudi

    Today, 16 October, Tuesday

    Time Temperature Precipitation Wind Pressure Humidity
    00:00 +27°C° 0 mm 1 mps 680 mmHg 19%
    01:00 +26°C° 0 mm 1 mps 680 mmHg 20%
    02:00 +25°C° 0 mm 2 mps 680 mmHg 21%
    03:00 +25°C° 0 mm 2 mps 680 mmHg 22%
    04:00 +24°C° 0 mm 1 mps 680 mmHg 22%
    05:00 +23°C° 0 mm 1 mps 679 mmHg 23%
    06:00 +25°C° 0 mm 1 mps 680 mmHg 22%
    07:00 +27°C° 0 mm 2 mps 681 mmHg 20%
    08:00 +29°C° 0 mm 2 mps 682 mmHg 22%
    09:00 +30°C° 0 mm 3 mps 682 mmHg 21%
    10:00 +33°C° 0 mm 3 mps 682 mmHg 21%
    11:00 +35°C° 0 mm 3 mps 682 mmHg 20%
    12:00 +36°C° 0 mm 3 mps 681 mmHg 17%
    13:00 +37°C° 0 mm 2 mps 681 mmHg 14%
    14:00 +38°C° 0 mm 2 mps 680 mmHg 13%
    15:00 +38°C° 0 mm 2 mps 680 mmHg 12%
    16:00 +38°C° 0 mm 2 mps 680 mmHg 11%
    17:00 +38°C° 0 mm 2 mps 679 mmHg 10%
    18:00 +36°C° 0 mm 2 mps 679 mmHg 11%
    19:00 +35°C° 0 mm 2 mps 680 mmHg 11%
    20:00 +32°C° 0 mm 2 mps 680 mmHg 12%
    21:00 +31°C° 0 mm 2 mps 680 mmHg 12%
    22:00 +30°C° 0 mm 2 mps 680 mmHg 11%
    23:00 +29°C° 0 mm 2 mps 680 mmHg 11%

    Tomorrow, 17 October, Wednesday

    Time Temperature Precipitation Wind Pressure Humidity
    00:00 +28°C° 0 mm 2 mps 680 mmHg 11%
    01:00 +27°C° 0 mm 2 mps 680 mmHg 12%
    02:00 +26°C° 0 mm 1 mps 679 mmHg 13%
    03:00 +25°C° 0 mm 1 mps 679 mmHg 14%
    04:00 +25°C° 0 mm 1 mps 679 mmHg 16%
    05:00 +24°C° 0 mm 1 mps 679 mmHg 17%
    06:00 +26°C° 0 mm 1 mps 679 mmHg 18%
    07:00 +27°C° 0 mm 2 mps 680 mmHg 20%
    08:00 +29°C° 0 mm 3 mps 681 mmHg 21%
    09:00 +30°C° 0 mm 3 mps 680 mmHg 22%
    10:00 +33°C° 0 mm 3 mps 680 mmHg 22%
    11:00 +35°C° 0 mm 3 mps 680 mmHg 23%
    12:00 +36°C° 0 mm 3 mps 680 mmHg 19%
    13:00 +37°C° 0 mm 3 mps 679 mmHg 14%
    14:00 +38°C° 0 mm 3 mps 679 mmHg 10%
    15:00 +38°C° 0 mm 4 mps 678 mmHg 8%
    16:00 +38°C° 0 mm 4 mps 678 mmHg 7%
    17:00 +37°C° 0 mm 5 mps 678 mmHg 5%
    18:00 +36°C° 0 mm 4 mps 678 mmHg 6%
    19:00 +34°C° 0 mm 4 mps 678 mmHg 8%
    20:00 +31°C° 0 mm 3 mps 678 mmHg 9%
    21:00 +30°C° 0 mm 3 mps 679 mmHg 10%
    22:00 +29°C° 0 mm 2 mps 679 mmHg 12%
    23:00 +28°C° 0 mm 2 mps 679 mmHg 13%

    Day after tomorrow, 18 October, Thursday

    Time Temperature Precipitation Wind Pressure Humidity
    00:00 +28°C° 0 mm 2 mps 679 mmHg 14%
    01:00 +27°C° 0 mm 2 mps 678 mmHg 14%
    02:00 +26°C° 0 mm 2 mps 678 mmHg 15%
    03:00 +26°C° 0 mm 2 mps 678 mmHg 17%
    04:00 +25°C° 0 mm 2 mps 678 mmHg 20%
    05:00 +24°C° 0 mm 2 mps 678 mmHg 22%
    06:00 +25°C° 0 mm 3 mps 679 mmHg 30%
    07:00 +26°C° 0 mm 4 mps 679 mmHg 38%
    08:00 +27°C° 0 mm 5 mps 680 mmHg 46%
    09:00 +28°C° 0 mm 5 mps 680 mmHg 44%
    10:00 +29°C° 0 mm 6 mps 680 mmHg 43%
    11:00 +32°C° 0 mm 6 mps 680 mmHg 42%
    12:00 +32°C° 0 mm 5 mps 680 mmHg 38%
    13:00 +33°C° 0 mm 4 mps 679 mmHg 34%
    14:00 +34°C° 0 mm 4 mps 679 mmHg 31%
    15:00 +34°C° 0 mm 4 mps 679 mmHg 30%
    16:00 +34°C° 0 mm 4 mps 678 mmHg 30%
    17:00 +33°C° 0 mm 4 mps 678 mmHg 30%
    18:00 +32°C° 0 mm 5 mps 678 mmHg 32%
    19:00 +30°C° 0 mm 5 mps 678 mmHg 35%
    20:00 +29°C° 0 mm 5 mps 679 mmHg 38%
    21:00 +28°C° 0 mm 5 mps 679 mmHg 42%
    22:00 +27°C° 0 mm 5 mps 679 mmHg 47%
    23:00 +26°C° 0 mm 5 mps 680 mmHg 51%

    19 October, Friday

    Time Temperature Precipitation Wind Pressure Humidity
    00:00 +25°C° 0 mm 5 mps 680 mmHg 54%
    01:00 +23°C° 0 mm 5 mps 679 mmHg 57%
    02:00 +22°C° 0 mm 5 mps 679 mmHg 60%
    03:00 +21°C° 0 mm 5 mps 679 mmHg 64%
    04:00 +20°C° 0 mm 5 mps 679 mmHg 67%
    05:00 +19°C° 0 mm 4 mps 679 mmHg 70%
    06:00 +20°C° 0 mm 5 mps 680 mmHg 68%
    07:00 +21°C° 0 mm 5 mps 681 mmHg 66%
    08:00 +21°C° 0 mm 5 mps 681 mmHg 64%
    09:00 +25°C° 0 mm 5 mps 681 mmHg 55%
    10:00 +27°C° 0 mm 5 mps 682 mmHg 47%
    11:00 +29°C° 0 mm 5 mps 682 mmHg 39%
    12:00 +32°C° 0 mm 4 mps 681 mmHg 34%
    13:00 +34°C° 0 mm 4 mps 681 mmHg 29%
    14:00 +35°C° 0 mm 3 mps 680 mmHg 25%
    15:00 +35°C° 0 mm 3 mps 680 mmHg 23%
    16:00 +36°C° 0 mm 3 mps 679 mmHg 21%
    17:00 +36°C° 0 mm 2 mps 679 mmHg 20%
    18:00 +34°C° 0 mm 2 mps 679 mmHg 22%
    19:00 +32°C° 0 mm 2 mps 680 mmHg 25%
    20:00 +31°C° 0 mm 3 mps 680 mmHg 27%
    21:00 +30°C° 0 mm 3 mps 680 mmHg 29%
    22:00 +29°C° 0 mm 3 mps 680 mmHg 32%
    23:00 +28°C° 0 mm 3 mps 680 mmHg 34%

    20 October, Saturday

    Time Temperature Precipitation Wind Pressure Humidity
    00:00 +28°C° 0 mm 3 mps 679 mmHg 37%
    01:00 +27°C° 0 mm 4 mps 679 mmHg 40%
    02:00 +26°C° 0 mm 4 mps 678 mmHg 42%
    03:00 +26°C° 0 mm 4 mps 678 mmHg 45%
    04:00 +25°C° 0 mm 4 mps 678 mmHg 48%
    05:00 +24°C° 0 mm 3 mps 678 mmHg 50%
    06:00 +25°C° 0 mm 4 mps 679 mmHg 49%
    07:00 +26°C° 0 mm 5 mps 680 mmHg 47%
    08:00 +27°C° 0 mm 5 mps 681 mmHg 45%
    09:00 +29°C° 0 mm 5 mps 681 mmHg 39%
    10:00 +33°C° 0 mm 5 mps 681 mmHg 33%
    11:00 +35°C° 0 mm 5 mps 682 mmHg 27%
    12:00 +36°C° 0 mm 4 mps 681 mmHg 23%
    13:00 +37°C° 0 mm 4 mps 680 mmHg 20%
    14:00 +39°C° 0 mm 3 mps 680 mmHg 17%
    15:00 +39°C° 0 mm 3 mps 679 mmHg 16%
    16:00 +39°C° 0 mm 3 mps 679 mmHg 15%
    17:00 +39°C° 0 mm 3 mps 679 mmHg 14%
    18:00 +37°C° 0 mm 3 mps 679 mmHg 17%
    19:00 +35°C° 0 mm 3 mps 679 mmHg 19%
    20:00 +34°C° 0 mm 3 mps 679 mmHg 21%
    21:00 +33°C° 0.3 mm 3 mps 679 mmHg 24%
    22:00 +32°C° 0.3 mm 4 mps 680 mmHg 27%
    23:00 +30°C° 0.3 mm 4 mps 681 mmHg 30%

    21 October, Sunday

    Time Temperature Precipitation Wind Pressure Humidity
    00:00 +28°C° 0.2 mm 5 mps 681 mmHg 40%
    01:00 +27°C° 0.2 mm 7 mps 681 mmHg 49%
    02:00 +24°C° 0.2 mm 8 mps 681 mmHg 58%
    03:00 +23°C° 0 mm 8 mps 681 mmHg 58%
    04:00 +22°C° 0 mm 8 mps 682 mmHg 58%
    05:00 +21°C° 0 mm 8 mps 682 mmHg 58%
    06:00 +21°C° 0.1 mm 8 mps 683 mmHg 57%
    07:00 +20°C° 0.1 mm 8 mps 684 mmHg 55%
    08:00 +19°C° 0.1 mm 9 mps 685 mmHg 54%
    09:00 +21°C° 0 mm 9 mps 686 mmHg 52%
    10:00 +21°C° 0 mm 8 mps 686 mmHg 50%
    11:00 +22°C° 0 mm 8 mps 686 mmHg 48%
    12:00 +23°C° 0 mm 8 mps 686 mmHg 44%
    13:00 +24°C° 0 mm 8 mps 685 mmHg 40%
    14:00 +26°C° 0 mm 8 mps 685 mmHg 36%
    15:00 +26°C° 0 mm 8 mps 685 mmHg 34%
    16:00 +24°C° 0 mm 8 mps 685 mmHg 32%
    17:00 +24°C° 0 mm 8 mps 685 mmHg 30%
    18:00 +23°C° 0 mm 8 mps 685 mmHg 28%
    19:00 +21°C° 0 mm 8 mps 685 mmHg 27%
    20:00 +20°C° 0 mm 8 mps 685 mmHg 26%
    21:00 +18°C° 0 mm 8 mps 685 mmHg 28%
    22:00 +16°C° 0 mm 8 mps 685 mmHg 30%
    23:00 +15°C° 0 mm 7 mps 685 mmHg 32%
    Show more